Theta_e
323 323 323 322 323 322 321 322 322 322 323 328 331 332 331 330 331 332 331 332 332 332 327 331 331 330 325 323 321 323 323 323 322 321 321 320 319 319 319 318 319 320 318
324 323 323 323 325 324 323 322 321 322 323 328 331 329 329 329 330 331 330 330 331 332 329 332 331 329 326 324 322 322 322 322 321 320 320 319 318 318 318 317 316 315 316
323 323 323 323 324 324 325 325 324 323 324 327 329 328 329 330 330 329 330 329 331 332 331 331 331 327 324 323 322 322 322 320 320 319 317 317 317 317 316 316 316 315 315
323 323 323 323 323 325 326 326 327 325 327 327 327 329 328 329 328 329 331 331 330 332 332 331 330 326 323 323 316 321 321 320 318 316 317 317 317 316 315 315 315 314 313
323 323 323 324 324 325 326 327 327 327 328 326 327 328 328 328 326 326 327 327 330 330 331 328 327 323 321 320 318 322 321 318 318 318 317 317 317 316 316 315 314 314 314
323 323 323 324 324 325 326 325 328 328 328 328 328 329 328 327 326 324 326 329 328 326 328 327 325 324 323 325 324 322 321 320 319 319 318 316 315 315 316 315 315 315 314
322 322 323 323 323 324 324 325 326 329 332 328 329 328 322 321 322 325 325 328 328 325 326 327 322 321 318 322 324 324 324 323 321 321 319 317 316 315 314 314 315 314 314
321 321 321 322 321 322 322 326 324 325 326 327 325 321 320 322 324 324 323 326 327 326 324 325 320 320 324 324 325 324 324 324 323 323 320 318 317 316 314 314 315 313 312
321 321 320 320 321 322 321 324 325 325 326 326 326 326 321 323 322 322 324 322 322 323 322 326 322 318 321 322 322 323 323 324 323 322 320 318 318 315 314 314 314 313 313
321 320 320 320 320 320 320 321 324 324 324 324 326 325 327 325 324 324 322 322 322 323 324 325 325 323 319 319 318 316 321 322 322 321 321 320 318 315 314 313 313 312 311
321 320 319 319 320 320 320 320 321 322 323 324 324 324 325 324 325 324 323 323 324 324 323 324 325 321 319 319 316 314 315 316 319 319 318 318 316 314 312 311 311 311 313
320 319 318 318 319 319 319 320 320 322 322 322 322 324 324 323 323 323 323 324 323 323 322 321 321 321 321 319 319 319 317 314 313 314 313 312 312 311 311 312 312 313 312
320 318 318 318 318 318 319 320 320 320 322 321 322 321 321 321 321 321 322 322 322 321 320 319 320 320 320 320 320 318 314 313 314 313 312 311 311 311 312 313 312 311 310
319 318 317 319 317 317 319 319 320 320 320 320 320 321 321 321 320 320 320 320 320 320 318 318 318 317 317 317 316 315 315 314 313 312 312 312 312 312 312 311 310 308 307
320 319 318 319 318 317 318 319 320 321 320 320 320 320 320 320 319 320 319 318 317 316 316 315 314 314 313 313 313 313 313 312 312 312 312 311 311 311 310 309 307 305 304
321 319 318 319 319 318 318 318 319 319 319 320 320 319 318 317 318 318 317 317 316 316 316 315 314 314 314 313 313 313 313 312 312 312 311 310 309 308 306 305 303 303 301
321 320 320 320 318 319 318 318 317 317 317 318 319 318 317 316 315 315 314 313 314 313 314 313 313 312 312 311 311 311 310 309 308 308 306 306 305 304 302 301 300 299 297
322 320 321 319 319 319 318 318 317 316 316 316 315 314 314 313 312 311 311 311 311 311 311 311 310 308 306 305 304 304 304 303 303 302 301 301 300 300 299 298 297 296 295
323 321 320 320 319 319 319 317 317 317 316 314 312 311 308 307 307 308 308 307 307 306 304 302 301 300 299 298 297 296 296 296 296 296 297 297 296 296 296 297 295 296 295
323 322 321 320 319 318 318 317 316 314 312 311 309 306 304 303 304 304 303 302 300 298 297 296 296 295 295 295 295 294 294 294 293 293 293 293 293 293 293 292 295 296 296
323 322 321 319 318 318 318 315 313 312 311 309 306 303 302 300 300 299 299 298 297 296 296 296 296 295 294 293 293 293 293 294 294 294 294 294 294 293 293 293 295 295 295
323 322 321 319 317 317 317 314 312 311 310 307 304 302 300 299 298 297 297 297 296 296 296 296 295 295 293 292 292 292 292 292 293 294 294 294 293 293 294 294 294 294 294
322 322 321 319 316 316 317 315 311 309 309 306 303 301 299 298 297 297 296 296 296 296 296 295 295 294 294 293 292 292 291 291 292 293 293 292 292 292 292 292 292 293 293
322 322 321 319 317 316 316 316 312 310 310 307 304 302 299 298 297 297 296 296 296 296 296 295 295 294 294 293 293 292 291 291 290 291 292 291 291 290 290 291 291 292 291
322 322 321 320 318 317 317 315 312 312 311 308 305 302 300 298 297 297 297 296 296 296 296 295 295 295 294 293 292 292 291 292 293 293 292 290 291 290 290 290 291 290 290
322 322 321 320 319 318 317 314 314 313 312 309 306 303 302 300 298 298 297 296 296 296 295 295 295 294 293 293 292 291 290 291 292 292 291 291 291 290 290 289 289 289 289
Wind_Speed
10 13 18 14 15 12 18 21 21 20 17 16 22 18 16 15 15 21 18 19 22 25 31 33 31 30 28 26 23 28 28 27 22 25 19 18 15 14 9 10 10 10 5
8 12 15 12 12 8 8 16 16 21 18 20 21 17 15 13 17 17 16 20 24 28 37 35 33 34 32 27 25 28 28 27 24 28 24 16 15 14 14 10 5 8 7
5 9 11 12 8 8 8 7 4 10 16 20 17 16 17 14 12 11 11 12 18 30 41 37 37 35 33 30 26 27 29 30 27 24 18 15 8 16 11 14 9 9 12
3 5 8 10 10 6 6 4 9 14 15 15 18 16 14 14 11 9 11 17 18 34 41 41 37 35 30 31 27 26 29 28 26 20 12 6 5 13 15 14 13 11 8
3 3 7 9 9 7 5 5 10 14 12 14 15 13 16 12 4 6 10 18 24 36 43 39 32 29 31 31 28 30 27 25 25 21 14 12 17 11 13 21 18 17 11
5 4 6 8 8 9 9 5 12 15 13 16 15 13 8 6 8 8 11 23 25 31 33 31 30 29 31 29 29 27 25 21 23 22 17 14 14 11 13 6 23 21 18
7 5 7 6 8 9 9 10 8 12 12 15 16 12 7 2 7 10 14 27 36 28 28 29 30 26 23 25 24 22 21 16 17 13 15 11 10 6 9 8 22 21 16
9 6 6 5 7 12 12 8 5 8 8 10 14 12 8 5 3 13 11 34 32 26 27 24 28 30 30 28 24 21 19 20 13 15 15 17 15 12 10 10 17 11 6
10 8 6 5 5 7 11 10 8 8 8 6 5 7 6 2 4 3 5 19 22 21 26 22 23 28 30 27 25 25 23 22 19 16 17 16 15 14 13 11 12 14 10
13 10 8 5 5 6 7 9 9 9 7 7 7 9 9 10 9 7 14 13 16 17 15 19 17 28 30 27 26 24 25 26 25 16 16 17 17 15 13 14 15 12 12
16 13 11 8 7 7 8 9 10 10 8 7 8 8 9 10 16 8 15 15 14 12 13 19 23 28 32 30 27 26 24 20 21 20 18 18 16 14 15 17 15 17 25
18 15 14 11 8 8 9 11 11 11 11 11 11 12 11 11 15 14 15 13 13 10 9 16 20 22 28 33 31 25 25 24 24 22 16 15 15 15 18 23 26 26 23
18 17 16 14 11 10 10 11 13 13 13 10 11 14 15 15 16 17 16 14 12 12 13 13 13 16 19 23 24 25 24 21 19 19 17 16 16 19 22 22 18 16 15
20 19 17 16 14 12 12 12 14 14 14 14 16 17 18 16 17 17 16 15 13 12 13 12 12 14 14 13 12 12 12 12 12 13 15 17 16 14 13 13 11 9 8
23 20 20 18 17 16 15 15 14 15 14 17 18 18 16 15 15 15 15 16 16 14 13 12 13 13 13 11 11 10 9 9 9 9 10 11 11 10 9 8 7 9 9
26 23 23 21 19 17 17 15 16 15 14 14 15 16 17 18 17 15 14 15 15 14 13 13 11 11 11 10 10 8 8 8 7 7 8 8 7 7 7 8 10 9 10
30 27 27 24 22 19 19 19 18 18 17 18 18 17 16 16 15 15 16 15 15 13 14 13 12 12 12 11 10 9 7 6 6 5 5 5 6 6 7 8 8 10 12
32 29 30 25 22 22 22 20 19 18 17 17 18 17 16 16 16 16 15 15 14 13 12 13 12 11 11 10 9 7 6 6 5 4 6 6 7 8 8 8 7 8 11
33 30 29 27 20 23 25 23 20 18 19 19 18 17 16 16 16 16 15 13 13 12 10 10 9 8 8 7 6 5 5 5 6 7 8 8 9 10 10 11 9 7 11
32 32 30 31 29 24 24 26 24 20 22 20 18 16 15 15 16 16 15 14 12 10 8 7 8 8 7 7 6 4 3 3 3 4 6 9 11 11 9 9 8 8 9
36 35 35 36 34 31 28 29 27 25 22 20 18 17 16 15 15 15 13 12 10 10 9 6 7 7 7 7 6 4 3 2 1 3 4 5 8 9 7 7 8 8 10
38 38 40 37 33 33 30 31 28 26 23 21 19 18 16 15 14 13 13 11 11 11 9 8 6 6 6 6 5 4 2 3 3 6 7 8 8 7 5 6 7 8 9
43 41 40 35 35 33 31 31 29 28 25 23 22 20 18 16 15 15 15 13 12 11 10 8 7 4 5 5 5 4 4 6 7 7 7 7 8 5 6 7 7 8 9
44 43 40 36 35 34 31 29 30 29 25 24 22 21 19 17 15 15 14 13 13 12 11 9 8 6 5 4 3 3 3 3 5 5 6 8 5 5 4 3 5 8 8
44 45 43 40 38 37 34 32 32 30 27 25 24 22 20 19 18 16 15 14 12 11 11 10 9 8 7 6 4 4 4 3 3 7 9 10 4 4 3 3 5 8 8
45 43 41 39 38 37 36 34 32 31 29 28 27 25 23 22 20 19 18 16 14 13 11 11 11 10 9 7 6 7 6 7 8 10 9 7 5 6 6 5 8 7 7
Wind_Direction
333 310 303 302 308 292 271 264 261 231 231 217 208 204 209 218 210 233 245 241 230 221 216 204 194 174 172 173 169 163 164 167 159 151 151 152 143 148 156 154 170 165 137
337 332 340 308 293 298 283 257 258 219 211 219 205 204 211 224 227 241 247 241 232 218 203 199 197 180 180 171 169 169 168 167 168 161 150 141 153 166 170 171 188 158 139
8 347 344 350 335 300 269 242 229 193 201 211 196 195 204 213 242 256 266 254 231 215 199 198 195 186 185 178 174 179 174 166 172 176 154 150 178 169 183 171 180 186 173
38 358 3 7 14 24 19 214 184 186 198 194 192 201 219 223 256 245 226 244 238 200 195 196 195 183 181 176 179 185 185 179 170 174 162 193 229 172 173 192 192 204 214
108 48 33 28 29 48 58 83 154 158 184 194 185 208 227 235 226 240 236 229 208 193 189 181 179 180 177 184 190 186 188 183 171 184 201 178 167 173 176 180 190 193 199
129 91 61 48 60 62 57 120 141 150 153 171 192 211 226 218 234 225 219 219 206 175 165 171 170 177 176 184 192 183 194 185 182 188 204 199 180 169 181 197 192 198 205
146 130 98 78 78 81 77 76 137 165 160 175 193 186 158 38 286 210 202 206 184 180 171 176 176 182 171 188 189 176 183 185 191 195 199 203 192 216 204 209 187 194 206
154 144 135 111 84 77 87 102 121 97 138 154 162 165 141 45 183 172 181 189 200 167 175 171 172 168 170 178 175 177 185 184 201 211 203 199 200 216 211 192 181 177 174
160 162 145 139 112 89 78 88 116 122 132 148 173 203 211 109 126 179 194 165 157 164 181 182 181 179 183 182 184 186 187 186 192 195 190 192 206 212 215 213 209 208 172
163 161 160 150 134 118 100 94 100 111 117 130 141 168 177 191 201 204 159 152 147 159 171 179 195 197 189 192 192 192 192 195 198 208 212 224 223 215 219 215 203 223 264
166 158 168 157 140 130 125 112 105 105 111 119 134 134 141 167 181 163 166 175 161 174 185 196 200 192 197 202 202 198 192 195 197 206 223 228 223 222 230 216 226 265 286
172 163 158 154 150 142 133 127 123 123 112 112 120 125 128 139 150 147 148 153 151 159 177 194 198 198 206 207 210 213 210 207 209 211 221 227 238 238 243 260 270 276 281
168 166 164 159 156 151 139 142 138 133 132 126 126 126 123 122 123 121 121 125 133 137 137 152 173 188 196 200 204 203 203 206 212 223 234 241 248 257 263 267 269 268 268
170 166 166 163 161 160 150 147 144 146 144 138 131 124 124 128 127 120 120 122 127 130 130 129 139 146 150 156 163 170 182 194 209 224 236 243 249 251 252 258 257 244 236
172 171 174 168 166 161 159 156 152 146 147 143 142 140 140 141 139 139 138 131 128 128 127 131 134 132 133 140 151 161 168 186 200 211 223 229 237 237 234 229 224 230 239
175 176 177 176 171 168 162 162 160 158 161 153 147 141 131 128 128 126 125 129 130 129 129 133 138 143 146 157 165 172 180 191 200 213 213 208 211 209 219 227 231 245 260
175 187 181 182 177 172 169 162 159 153 149 147 145 142 138 131 130 130 129 133 135 139 138 140 143 144 142 141 142 142 151 154 165 181 202 217 223 224 227 242 258 265 267
184 188 183 183 180 174 168 165 161 158 156 151 145 144 151 149 142 142 142 141 138 140 144 143 148 148 143 142 141 144 163 170 178 199 220 228 230 243 253 258 280 285 281
190 189 188 174 179 177 176 170 168 171 166 157 156 158 155 151 150 148 146 144 146 151 149 143 145 157 163 159 161 177 196 207 211 219 232 232 238 242 238 246 241 247 274
185 179 175 172 174 178 170 165 169 170 163 167 169 166 164 160 155 155 156 156 158 149 141 146 142 150 162 162 172 173 168 185 215 244 246 248 255 266 264 238 223 232 261
178 178 174 179 184 177 177 172 175 174 174 174 174 171 168 166 167 166 164 163 159 158 163 162 159 152 155 158 164 177 167 163 194 295 283 261 260 261 255 217 219 243 253
175 176 174 182 182 182 181 178 179 177 181 181 178 178 177 179 176 176 174 175 174 172 172 169 172 147 151 159 170 186 203 219 218 237 262 277 298 253 219 213 232 240 250
175 177 179 184 181 187 185 181 178 183 185 183 182 182 184 184 183 181 184 180 182 186 189 189 194 203 170 178 183 194 213 221 229 249 267 277 291 267 242 252 233 240 237
173 175 177 182 184 189 188 190 183 190 192 189 189 190 193 192 190 189 196 198 198 198 200 204 206 212 234 221 238 225 246 258 259 269 285 301 291 301 289 275 233 241 249
173 179 182 186 188 189 188 191 192 196 195 196 195 198 200 200 197 199 204 205 208 215 215 212 219 224 227 253 261 268 275 281 287 293 309 312 329 317 312 264 245 251 268
175 178 182 188 190 191 187 191 198 202 199 198 198 202 205 204 203 203 200 204 214 221 222 223 230 231 227 232 239 252 260 260 257 269 282 302 265 264 271 270 273 276 278